CW0451 Weather Reports


Display with metric or nautical units.
time (UTC)temp
F
wind
direction
speed
MPH
gust
MPH
rain 1hr
in
rain 24hr
in
rain mn
in
humidity
%
barometer
mb
20260505041124 50 200 5.0 9.0 0.00 0.00 0.00 87 1011.2
20260505040103 50 191 5.0 10.0 0.00 0.00 0.00 87 1011.1
20260505035102 51 202 5.0 9.0 0.00 0.00 0.00 86 1011.2
20260505034103 51 201 5.0 9.0 0.00 0.00 0.00 86 1011.1
20260505033103 51 212 6.0 13.0 0.00 0.00 0.00 86 1011.1
20260505032102 51 201 5.0 10.0 0.00 0.00 0.00 86 1011.1
20260505031102 51 222 4.0 12.0 0.00 0.00 0.00 85 1011.1
20260505025103 51 214 6.0 11.0 0.00 0.00 0.00 84 1011.3
20260505024102 51 203 6.0 13.0 0.00 0.00 0.00 83 1011.3
20260505023103 51 209 5.0 14.0 0.00 0.00 0.00 83 1011.2
20260505022124 51 217 6.0 13.0 0.00 0.00 0.00 82 1011.4
20260505021103 52 220 4.0 12.0 0.00 0.00 0.00 82 1011.4
20260505015103 53 212 6.0 12.0 0.00 0.00 0.00 80 1011.3
20260505014124 53 214 7.0 14.0 0.00 0.00 0.00 79 1011.3
20260505013102 53 212 7.0 15.0 0.00 0.00 0.00 78 1011.3
20260505012103 54 215 5.0 15.0 0.00 0.00 0.00 78 1011.1
20260505011102 54 212 8.0 20.0 0.00 0.00 0.00 77 1010.9
20260505005102 55 216 8.0 19.0 0.00 0.00 0.00 75 1010.4
20260505004103 55 234 7.0 13.0 0.00 0.00 0.00 74 1010.4
20260505003103 55 227 5.0 18.0 0.00 0.00 0.00 73 1010.2
20260505002102 55 220 10.0 17.0 0.00 0.00 0.00 71 1009.9
20260505001103 56 225 8.0 17.0 0.00 0.00 0.00 70 1009.7
20260504235103 56 208 8.0 22.0 0.00 0.00 0.00 67 1009.4
20260504234103 57 226 12.0 21.0 0.00 0.00 0.00 66 1009.3
20260504233102 58 224 11.0 23.0 0.00 0.00 0.00 64 1009.2
20260504232103 58 227 11.0 25.0 0.00 0.00 0.00 62 1009.1
20260504231102 58 221 15.0 26.0 0.00 0.00 0.00 61 1008.9
20260504225102 59 221 10.0 24.0 0.00 0.00 0.00 61 1008.8
20260504224124 60 215 14.0 22.0 0.00 0.00 0.00 57 1008.7
20260504223103 61 209 8.0 24.0 0.00 0.00 0.00 56 1008.5
20260504222102 63 209 11.0 23.0 0.00 0.00 0.00 53 1008.4
20260504221104 63 215 12.0 23.0 0.00 0.00 0.00 54 1008.4
20260504215102 64 205 11.0 22.0 0.00 0.00 0.00 54 1008.3
20260504214103 63 210 13.0 27.0 0.00 0.00 0.00 54 1008.4
20260504213102 64 200 13.0 25.0 0.00 0.00 0.00 53 1008.3
20260504212123 64 216 12.0 27.0 0.00 0.00 0.00 54 1008.2
20260504211103 64 203 20.0 30.0 0.00 0.00 0.00 51 1008.1
20260504205124 65 192 16.0 27.0 0.00 0.00 0.00 51 1008.2
20260504204103 66 196 9.0 23.0 0.00 0.00 0.00 50 1008.1
20260504203102 65 197 15.0 26.0 0.00 0.00 0.00 49 1008.0
20260504202103 66 190 15.0 26.0 0.00 0.00 0.00 49 1008.0
20260504201102 66 191 15.0 26.0 0.00 0.00 0.00 49 1007.9
20260504195102 66 196 18.0 29.0 0.00 0.00 0.00 48 1008.1
20260504194102 67 201 14.0 28.0 0.00 0.00 0.00 46 1008.1
20260504193103 67 210 17.0 34.0 0.00 0.00 0.00 43 1008.1
20260504192102 67 234 14.0 28.0 0.00 0.00 0.00 43 1008.1
20260504191103 67 200 13.0 32.0 0.00 0.00 0.00 43 1008.1
20260504190123 68 203 16.0 24.0 0.00 0.00 0.00 40 1008.2
20260504185102 68 244 14.0 28.0 0.00 0.00 0.00 40 1008.2
20260504184124 69 205 13.0 23.0 0.00 0.00 0.00 40 1008.1
20260504183102 69 272 8.0 19.0 0.00 0.00 0.00 35 1008.3
20260504182103 69 254 10.0 21.0 0.00 0.00 0.00 36 1008.3
20260504181102 69 237 12.0 26.0 0.00 0.00 0.00 37 1008.5
20260504175103 68 243 13.0 31.0 0.00 0.00 0.00 36 1008.6
20260504174145 68 247 13.0 31.0 0.00 0.00 0.00 37 1008.3
20260504173102 68 247 10.0 28.0 0.00 0.00 0.00 36 1008.4
20260504172103 68 246 9.0 25.0 0.00 0.00 0.00 36 1008.6
20260504171102 68 243 7.0 27.0 0.00 0.00 0.00 37 1008.6
20260504151103 65 272 7.0 21.0 0.00 0.00 0.00 43 1009.8
20260504141103 64 246 7.0 18.0 0.00 0.01 0.00 46 1010.6
20260504130104 59 253 4.0 14.0 0.00 0.01 0.00 50 1011.1
20260504090123 44 248 3.0 8.0 0.00 0.01 0.00 70 1010.8
20260504081102 44 229 3.0 6.0 0.00 0.01 0.00 67 1010.8
20260504070124 40 243 1.0 3.0 0.00 0.01 0.00 81 1010.6
20260504045103 41 251 3.0 6.0 0.00 0.01 0.00 71 1010.6
20260504044103 41 255 3.0 7.0 0.00 0.01 0.00 72 1010.5
20260504043102 40 254 2.0 7.0 0.00 0.01 0.00 74 1010.6
20260504042103 39 255 3.0 8.0 0.00 0.01 0.00 76 1010.5